Hourly Data Report for August 11, 2006

TORONTO CITY
ONTARIO

43°40'00.000" N
79°24'00.000" W
112.50 m
6158355
71508
XTO

Download Data

Hourly Data (August 2006)
Hourly Data Report for August 11, 2006
TIME
LST
Temp Definition
°C
Dew Point Definition
°C
Rel Hum Definition
%
Precip. Amount Definition
mm

Wind Dir Definition
10's deg

Wind Spd Definition
km/h
Visibility Definition
km
Stn Press Definition
kPa
Hmdx Definition


Wind Chill Definition


Weather Definition


00:00 18.5 9.4 55   LegendMM LegendMM   100.24     LegendNANA
01:00 17.5 9.0 57   LegendMM LegendMM   100.25     LegendNANA
02:00 16.4 8.7 60   LegendMM LegendMM   100.29     LegendNANA
03:00 15.5 8.5 63   LegendMM LegendMM   100.33     LegendNANA
04:00 14.5 8.5 67   LegendMM LegendMM   100.35     LegendNANA
05:00 13.6 8.2 70   LegendMM LegendMM   100.36     LegendNANA
06:00 13.2 7.9 70   LegendMM LegendMM   100.40     LegendNANA
07:00 13.7 7.8 68   LegendMM LegendMM   100.41     LegendNANA
08:00 15.5 8.9 65   LegendMM LegendMM   100.43     LegendNANA
09:00 17.0 8.6 58   LegendMM LegendMM   100.45     LegendNANA
10:00 18.4 7.8 50   LegendMM LegendMM   100.48     LegendNANA
11:00 19.0 6.8 45   LegendMM LegendMM   100.47     LegendNANA
12:00 20.3 7.9 45   LegendMM LegendMM   100.47     LegendNANA
13:00 21.3 9.6 47   LegendMM LegendMM   100.43     LegendNANA
14:00 21.4 9.7 47   LegendMM LegendMM   100.41     LegendNANA
15:00 21.7 10.3 48   LegendMM LegendMM   100.38     LegendNANA
16:00 21.0 10.1 50   LegendMM LegendMM   100.37     LegendNANA
17:00 20.3 11.2 56   LegendMM LegendMM   100.38     LegendNANA
18:00 21.7 6.9 38   LegendMM LegendMM   100.31     LegendNANA
19:00 21.0 9.8 49   LegendMM LegendMM   100.34     LegendNANA
20:00 19.6 11.0 58   LegendMM LegendMM   100.41     LegendNANA
21:00 18.3 11.4 64   LegendMM LegendMM   100.46     LegendNANA
22:00 17.9 10.9 64   LegendMM LegendMM   100.47     LegendNANA
23:00 17.5 10.6 64   LegendMM LegendMM   100.50     LegendNANA

Notes on Data Quality.

Legend

  • E = Estimated
  • M = Missing
  • NA = Not Available*
  • [empty] = Indicates an unobserved value
Date modified: